| time (UTC) | temp F | wind direction | speed MPH | gust MPH | rain 1hr in | rain 24hr in | rain mn in | humidity % | barometer mb |
| 20260906150517 | 65 | 103 | 1.0 | 5.0 | 0.00 | 0.05 | 0.03 | 85 | 1016.5 |
| 20260906150020 | 64 | 290 | 1.0 | 5.0 | 0.00 | 0.05 | 0.03 | 86 | 1016.5 |
| 20260906145504 | 63 | 76 | 1.0 | 3.0 | 0.00 | 0.05 | 0.03 | 89 | 1016.7 |
| 20260906145008 | 62 | 110 | 0.0 | 0.0 | 0.00 | 0.05 | 0.03 | 89 | 1016.8 |
| 20260906144515 | 62 | 110 | 0.0 | 0.0 | 0.00 | 0.05 | 0.03 | 89 | 1016.9 |
| 20260906144002 | 61 | 110 | 0.0 | 0.0 | 0.00 | 0.05 | 0.03 | 89 | 1016.8 |
| 20260906143503 | 62 | 89 | 0.0 | 0.0 | 0.00 | 0.05 | 0.03 | 89 | 1016.8 |
| 20260906143003 | 61 | 89 | 0.0 | 0.0 | 0.00 | 0.05 | 0.03 | 89 | 1016.8 |
| 20260906142502 | 62 | 29 | 0.0 | 3.0 | 0.00 | 0.05 | 0.03 | 88 | 1016.8 |
| 20260906142004 | 62 | 25 | 0.0 | 3.0 | 0.00 | 0.05 | 0.03 | 89 | 1016.7 |
| 20260906141503 | 62 | 355 | 0.0 | 0.0 | 0.00 | 0.05 | 0.03 | 92 | 1016.6 |
| 20260906141003 | 61 | 292 | 0.0 | 0.0 | 0.00 | 0.05 | 0.03 | 91 | 1016.6 |
| 20260906140505 | 61 | 360 | 0.0 | 0.0 | 0.00 | 0.05 | 0.03 | 93 | 1016.6 |
| 20260906140014 | 60 | 13 | 0.0 | 0.0 | 0.00 | 0.05 | 0.03 | 93 | 1016.6 |
| 20260906135504 | 60 | 13 | 0.0 | 1.0 | 0.00 | 0.05 | 0.03 | 93 | 1016.6 |
| 20260906135005 | 60 | 13 | 0.0 | 1.0 | 0.00 | 0.05 | 0.03 | 93 | 1016.6 |
| 20260906134511 | 60 | 276 | 0.0 | 1.0 | 0.00 | 0.05 | 0.03 | 94 | 1016.6 |
| 20260906134008 | 60 | 276 | 0.0 | 3.0 | 0.00 | 0.05 | 0.03 | 94 | 1016.6 |
| 20260906133507 | 60 | 288 | 1.0 | 3.0 | 0.00 | 0.05 | 0.03 | 95 | 1016.7 |
| 20260906133027 | 59 | 329 | 0.0 | 2.0 | 0.00 | 0.05 | 0.03 | 95 | 1016.6 |
| 20260906132502 | 59 | 329 | 0.0 | 2.0 | 0.00 | 0.05 | 0.03 | 95 | 1016.7 |
| 20260906132002 | 59 | 329 | 0.0 | 1.0 | 0.00 | 0.05 | 0.03 | 95 | 1016.7 |
| 20260906131504 | 59 | 329 | 0.0 | 1.0 | 0.00 | 0.05 | 0.03 | 95 | 1016.6 |
| 20260906131003 | 59 | 329 | 0.0 | 1.0 | 0.00 | 0.05 | 0.03 | 95 | 1016.6 |
| 20260906130503 | 59 | 329 | 0.0 | 2.0 | 0.00 | 0.05 | 0.03 | 95 | 1016.6 |
| 20260906130007 | 59 | 329 | 0.0 | 2.0 | 0.00 | 0.05 | 0.03 | 95 | 1016.6 |
| 20260906125504 | 59 | 313 | 0.0 | 0.0 | 0.00 | 0.05 | 0.03 | 95 | 1016.6 |
| 20260906125004 | 59 | 313 | 0.0 | 2.0 | 0.00 | 0.05 | 0.03 | 95 | 1016.5 |
| 20260906124512 | 59 | 313 | 0.0 | 2.0 | 0.00 | 0.05 | 0.03 | 95 | 1016.5 |
| 20260906124008 | 59 | 313 | 0.0 | 2.0 | 0.00 | 0.05 | 0.03 | 96 | 1016.4 |
| 20260906123507 | 59 | 31 | 0.0 | 0.0 | 0.01 | 0.05 | 0.03 | 95 | 1016.4 |
| 20260906123029 | 59 | 31 | 0.0 | 0.0 | 0.01 | 0.05 | 0.03 | 95 | 1016.4 |
| 20260906122508 | 59 | 31 | 0.0 | 1.0 | 0.01 | 0.05 | 0.03 | 96 | 1016.3 |
| 20260906122010 | 58 | 24 | 0.0 | 1.0 | 0.01 | 0.05 | 0.03 | 96 | 1016.2 |
| 20260906121526 | 58 | 1 | 0.0 | 1.0 | 0.01 | 0.05 | 0.03 | 95 | 1016.2 |
| 20260906121002 | 58 | 1 | 0.0 | 1.0 | 0.01 | 0.05 | 0.03 | 95 | 1016.3 |
| 20260906120502 | 57 | 1 | 0.0 | 0.0 | 0.01 | 0.05 | 0.03 | 95 | 1016.3 |
| 20260906120004 | 57 | 1 | 0.0 | 0.0 | 0.01 | 0.05 | 0.03 | 95 | 1016.3 |
| 20260906115502 | 57 | 1 | 0.0 | 0.0 | 0.01 | 0.05 | 0.03 | 95 | 1016.3 |
| 20260906115003 | 57 | 1 | 0.0 | 0.0 | 0.01 | 0.05 | 0.03 | 95 | 1016.2 |
| 20260906114507 | 57 | 1 | 0.0 | 0.0 | 0.01 | 0.05 | 0.03 | 95 | 1016.2 |
| 20260906114005 | 57 | 34 | 0.0 | 0.0 | 0.01 | 0.05 | 0.03 | 95 | 1016.3 |
| 20260906113506 | 57 | 34 | 0.0 | 0.0 | 0.00 | 0.04 | 0.02 | 95 | 1016.2 |
| 20260906113015 | 56 | 34 | 0.0 | 0.0 | 0.00 | 0.04 | 0.02 | 94 | 1016.2 |
| 20260906112509 | 56 | 34 | 0.0 | 0.0 | 0.00 | 0.04 | 0.02 | 94 | 1016.2 |
| 20260906112010 | 56 | 34 | 0.0 | 0.0 | 0.00 | 0.04 | 0.02 | 94 | 1016.2 |
| 20260906111523 | 56 | 34 | 0.0 | 0.0 | 0.00 | 0.04 | 0.02 | 94 | 1016.2 |
| 20260906111011 | 56 | 34 | 0.0 | 0.0 | 0.00 | 0.04 | 0.02 | 94 | 1016.1 |
| 20260906110512 | 56 | 34 | 0.0 | 0.0 | 0.00 | 0.04 | 0.02 | 94 | 1016.0 |
| 20260906110028 | 56 | 34 | 0.0 | 0.0 | 0.00 | 0.04 | 0.02 | 94 | 1015.9 |
| 20260906105512 | 56 | 34 | 0.0 | 0.0 | 0.00 | 0.04 | 0.02 | 94 | 1015.8 |
| 20260906105003 | 56 | 34 | 0.0 | 0.0 | 0.00 | 0.04 | 0.02 | 94 | 1015.8 |
| 20260906104507 | 56 | 34 | 0.0 | 0.0 | 0.00 | 0.04 | 0.02 | 94 | 1015.7 |
| 20260906104003 | 56 | 34 | 0.0 | 0.0 | 0.00 | 0.04 | 0.02 | 94 | 1015.7 |
| 20260906103503 | 56 | 34 | 0.0 | 0.0 | 0.00 | 0.04 | 0.02 | 94 | 1015.6 |
| 20260906103010 | 56 | 34 | 0.0 | 0.0 | 0.00 | 0.04 | 0.02 | 94 | 1015.5 |
| 20260906102506 | 56 | 34 | 0.0 | 0.0 | 0.00 | 0.04 | 0.02 | 94 | 1015.4 |
| 20260906102005 | 56 | 34 | 0.0 | 0.0 | 0.00 | 0.04 | 0.02 | 94 | 1015.3 |
| 20260906101526 | 56 | 34 | 0.0 | 0.0 | 0.00 | 0.04 | 0.02 | 94 | 1015.3 |
| 20260906101007 | 56 | 34 | 0.0 | 0.0 | 0.00 | 0.04 | 0.02 | 94 | 1015.3 |
| 20260906100511 | 56 | 34 | 0.0 | 0.0 | 0.00 | 0.04 | 0.02 | 94 | 1015.3 |
| 20260906100026 | 56 | 34 | 0.0 | 0.0 | 0.00 | 0.04 | 0.02 | 94 | 1015.3 |
| 20260906095511 | 56 | 34 | 0.0 | 0.0 | 0.00 | 0.04 | 0.02 | 93 | 1015.3 |
| 20260906095011 | 56 | 34 | 0.0 | 0.0 | 0.00 | 0.04 | 0.02 | 93 | 1015.3 |
| 20260906094528 | 56 | 34 | 0.0 | 0.0 | 0.00 | 0.04 | 0.02 | 93 | 1015.3 |
| 20260906094014 | 56 | 34 | 0.0 | 0.0 | 0.00 | 0.04 | 0.02 | 94 | 1015.3 |
| 20260906093506 | 56 | 34 | 0.0 | 0.0 | 0.00 | 0.04 | 0.02 | 94 | 1015.3 |
| 20260906093008 | 56 | 34 | 0.0 | 0.0 | 0.00 | 0.04 | 0.02 | 93 | 1015.1 |
| 20260906092504 | 56 | 34 | 0.0 | 0.0 | 0.00 | 0.04 | 0.02 | 93 | 1015.0 |
| 20260906092009 | 56 | 34 | 0.0 | 0.0 | 0.00 | 0.04 | 0.02 | 93 | 1015.0 |
| 20260906091512 | 56 | 34 | 0.0 | 0.0 | 0.00 | 0.04 | 0.02 | 93 | 1014.9 |
| 20260906091005 | 56 | 34 | 0.0 | 0.0 | 0.00 | 0.04 | 0.02 | 93 | 1014.8 |
| 20260906090507 | 56 | 34 | 0.0 | 0.0 | 0.00 | 0.04 | 0.02 | 93 | 1014.7 |
| 20260906090036 | 56 | 34 | 0.0 | 0.0 | 0.00 | 0.04 | 0.02 | 93 | 1014.7 |
| 20260906085512 | 56 | 34 | 0.0 | 0.0 | 0.00 | 0.04 | 0.02 | 93 | 1014.8 |
| 20260906085009 | 56 | 34 | 0.0 | 0.0 | 0.00 | 0.04 | 0.02 | 93 | 1014.8 |
| 20260906084526 | 57 | 34 | 0.0 | 0.0 | 0.00 | 0.04 | 0.02 | 93 | 1014.7 |
| 20260906084012 | 57 | 34 | 0.0 | 0.0 | 0.00 | 0.04 | 0.02 | 93 | 1014.7 |
| 20260906083514 | 57 | 34 | 0.0 | 0.0 | 0.01 | 0.04 | 0.02 | 93 | 1014.8 |
| 20260906083034 | 57 | 34 | 0.0 | 0.0 | 0.01 | 0.04 | 0.02 | 93 | 1014.9 |
| 20260906082513 | 57 | 34 | 0.0 | 0.0 | 0.01 | 0.04 | 0.02 | 93 | 1014.9 |
| 20260906082019 | 57 | 34 | 0.0 | 0.0 | 0.01 | 0.04 | 0.02 | 93 | 1014.8 |
| 20260906081512 | 57 | 34 | 0.0 | 0.0 | 0.02 | 0.04 | 0.02 | 93 | 1014.9 |
| 20260906081003 | 57 | 34 | 0.0 | 0.0 | 0.02 | 0.04 | 0.02 | 93 | 1014.9 |
| 20260906080507 | 57 | 34 | 0.0 | 0.0 | 0.02 | 0.04 | 0.02 | 92 | 1014.8 |
| 20260906080015 | 57 | 34 | 0.0 | 0.0 | 0.02 | 0.04 | 0.02 | 92 | 1014.9 |
| 20260906075507 | 57 | 34 | 0.0 | 0.0 | 0.02 | 0.04 | 0.02 | 92 | 1014.9 |
| 20260906075009 | 57 | 34 | 0.0 | 0.0 | 0.02 | 0.04 | 0.02 | 92 | 1014.9 |
| 20260906074523 | 58 | 34 | 0.0 | 0.0 | 0.02 | 0.04 | 0.02 | 92 | 1015.1 |
| 20260906074011 | 58 | 34 | 0.0 | 0.0 | 0.02 | 0.04 | 0.02 | 92 | 1015.1 |
| 20260906073510 | 58 | 34 | 0.0 | 0.0 | 0.01 | 0.03 | 0.01 | 92 | 1015.1 |
| 20260906073027 | 58 | 34 | 0.0 | 0.0 | 0.01 | 0.03 | 0.01 | 92 | 1015.0 |
| 20260906072514 | 57 | 34 | 0.0 | 0.0 | 0.01 | 0.03 | 0.01 | 91 | 1014.9 |
| 20260906072017 | 57 | 34 | 0.0 | 0.0 | 0.01 | 0.03 | 0.01 | 91 | 1014.9 |
| 20260906071532 | 58 | 34 | 0.0 | 0.0 | 0.00 | 0.02 | 0.00 | 91 | 1014.9 |
| 20260906071017 | 58 | 34 | 0.0 | 0.0 | 0.00 | 0.02 | 0.00 | 91 | 1014.7 |
| 20260906070515 | 58 | 34 | 0.0 | 0.0 | 0.00 | 0.02 | 0.00 | 91 | 1014.6 |
| 20260906070012 | 58 | 34 | 0.0 | 0.0 | 0.00 | 0.02 | 0.00 | 91 | 1014.7 |
| 20260906065510 | 58 | 34 | 0.0 | 0.0 | 0.00 | 0.02 | 0.00 | 90 | 1014.6 |
| 20260906065008 | 58 | 34 | 0.0 | 0.0 | 0.00 | 0.02 | 0.00 | 91 | 1014.5 |
| 20260906064515 | 58 | 34 | 0.0 | 0.0 | 0.00 | 0.02 | 0.00 | 91 | 1014.4 |
| 20260906064011 | 58 | 34 | 0.0 | 0.0 | 0.00 | 0.02 | 0.00 | 91 | 1014.3 |
| 20260906063509 | 58 | 34 | 0.0 | 0.0 | 0.00 | 0.02 | 0.00 | 91 | 1014.2 |
| 20260906063040 | 58 | 34 | 0.0 | 0.0 | 0.00 | 0.02 | 0.00 | 91 | 1014.3 |
| 20260906062512 | 58 | 34 | 0.0 | 0.0 | 0.00 | 0.02 | 0.00 | 91 | 1014.3 |
| 20260906062012 | 58 | 34 | 0.0 | 1.0 | 0.00 | 0.02 | 0.00 | 91 | 1014.4 |
| 20260906061532 | 58 | 34 | 0.0 | 2.0 | 0.00 | 0.02 | 0.00 | 91 | 1014.3 |
| 20260906061015 | 58 | 44 | 0.0 | 2.0 | 0.00 | 0.02 | 0.00 | 91 | 1014.3 |
| 20260906060516 | 58 | 44 | 0.0 | 4.0 | 0.00 | 0.02 | 0.00 | 91 | 1014.3 |
| 20260906060009 | 59 | 71 | 1.0 | 4.0 | 0.00 | 0.02 | 0.00 | 91 | 1014.4 |
| 20260906055503 | 59 | 47 | 0.0 | 0.0 | 0.00 | 0.02 | 0.00 | 92 | 1014.5 |
| 20260906055002 | 59 | 47 | 0.0 | 0.0 | 0.00 | 0.02 | 0.00 | 92 | 1014.4 |
| 20260906054502 | 59 | 47 | 0.0 | 0.0 | 0.00 | 0.02 | 0.00 | 92 | 1014.4 |
| 20260906054002 | 59 | 47 | 0.0 | 0.0 | 0.00 | 0.02 | 0.00 | 93 | 1014.4 |
| 20260906053502 | 59 | 47 | 0.0 | 0.0 | 0.00 | 0.02 | 0.00 | 92 | 1014.5 |
| 20260906053004 | 59 | 47 | 0.0 | 0.0 | 0.00 | 0.02 | 0.00 | 92 | 1014.5 |
| 20260906052503 | 59 | 47 | 0.0 | 0.0 | 0.00 | 0.02 | 0.00 | 93 | 1014.5 |
| 20260906052002 | 59 | 47 | 0.0 | 0.0 | 0.00 | 0.02 | 0.00 | 93 | 1014.5 |
| 20260906051506 | 59 | 47 | 0.0 | 0.0 | 0.00 | 0.02 | 0.00 | 93 | 1014.5 |
| 20260906051004 | 60 | 47 | 0.0 | 0.0 | 0.00 | 0.02 | 0.00 | 93 | 1014.5 |
| 20260906050502 | 60 | 47 | 0.0 | 0.0 | 0.00 | 0.02 | 0.00 | 93 | 1014.5 |
| 20260906050006 | 60 | 47 | 0.0 | 0.0 | 0.00 | 0.02 | 0.00 | 93 | 1014.5 |
| 20260906045504 | 60 | 47 | 0.0 | 0.0 | 0.00 | 0.02 | 0.00 | 93 | 1014.5 |
| 20260906045008 | 60 | 47 | 0.0 | 0.0 | 0.00 | 0.02 | 0.00 | 93 | 1014.5 |
| 20260906044512 | 60 | 47 | 0.0 | 0.0 | 0.00 | 0.02 | 0.00 | 93 | 1014.5 |
| 20260906044004 | 60 | 47 | 0.0 | 0.0 | 0.00 | 0.02 | 0.00 | 93 | 1014.6 |
| 20260906043502 | 60 | 47 | 0.0 | 0.0 | 0.00 | 0.02 | 0.00 | 93 | 1014.5 |
| 20260906043003 | 60 | 47 | 0.0 | 0.0 | 0.00 | 0.02 | 0.00 | 93 | 1014.5 |
| 20260906042501 | 60 | 47 | 0.0 | 0.0 | 0.00 | 0.02 | 0.00 | 94 | 1014.5 |
| 20260906042003 | 60 | 47 | 0.0 | 0.0 | 0.00 | 0.02 | 0.00 | 94 | 1014.5 |
| 20260906041506 | 60 | 47 | 0.0 | 0.0 | 0.00 | 0.02 | 0.00 | 94 | 1014.5 |
| 20260906041002 | 60 | 47 | 0.0 | 0.0 | 0.00 | 0.02 | 0.00 | 94 | 1014.5 |
| 20260906040504 | 60 | 47 | 0.0 | 0.0 | 0.00 | 0.02 | 0.00 | 94 | 1014.5 |
| 20260906040016 | 60 | 47 | 0.0 | 0.0 | 0.00 | 0.02 | 0.00 | 94 | 1014.5 |
| 20260906035502 | 60 | 47 | 0.0 | 0.0 | 0.00 | 0.02 | 0.02 | 94 | 1014.5 |
| 20260906035004 | 60 | 47 | 0.0 | 0.0 | 0.00 | 0.02 | 0.02 | 94 | 1014.5 |
| 20260906034508 | 60 | 47 | 0.0 | 0.0 | 0.00 | 0.02 | 0.02 | 94 | 1014.5 |
| 20260906034003 | 60 | 47 | 0.0 | 0.0 | 0.00 | 0.02 | 0.02 | 94 | 1014.4 |
| 20260906033508 | 60 | 47 | 0.0 | 0.0 | 0.00 | 0.02 | 0.02 | 93 | 1014.3 |
| 20260906033014 | 60 | 47 | 0.0 | 0.0 | 0.00 | 0.02 | 0.02 | 93 | 1014.2 |
| 20260906032502 | 60 | 47 | 0.0 | 0.0 | 0.00 | 0.02 | 0.02 | 93 | 1014.2 |
| 20260906032003 | 60 | 47 | 0.0 | 0.0 | 0.00 | 0.02 | 0.02 | 94 | 1014.2 |
| 20260906031504 | 60 | 47 | 0.0 | 0.0 | 0.00 | 0.02 | 0.02 | 93 | 1014.2 |
| 20260906031002 | 60 | 47 | 0.0 | 0.0 | 0.00 | 0.02 | 0.02 | 93 | 1014.1 |
| 20260906030503 | 60 | 47 | 0.0 | 0.0 | 0.00 | 0.02 | 0.02 | 93 | 1014.2 |
| 20260906030004 | 61 | 47 | 0.0 | 0.0 | 0.00 | 0.02 | 0.02 | 93 | 1014.2 |
| 20260906025502 | 60 | 47 | 0.0 | 0.0 | 0.00 | 0.02 | 0.02 | 93 | 1014.2 |
| 20260906025003 | 60 | 47 | 0.0 | 0.0 | 0.00 | 0.02 | 0.02 | 93 | 1014.3 |
| 20260906024504 | 61 | 47 | 0.0 | 0.0 | 0.00 | 0.02 | 0.02 | 93 | 1014.3 |
| 20260906024003 | 61 | 47 | 0.0 | 0.0 | 0.00 | 0.02 | 0.02 | 93 | 1014.3 |
| 20260906023506 | 61 | 47 | 0.0 | 0.0 | 0.00 | 0.02 | 0.02 | 93 | 1014.3 |
| 20260906023011 | 61 | 47 | 0.0 | 0.0 | 0.00 | 0.02 | 0.02 | 93 | 1014.3 |
| 20260906022507 | 61 | 47 | 0.0 | 0.0 | 0.00 | 0.02 | 0.02 | 93 | 1014.3 |
| 20260906022007 | 61 | 47 | 0.0 | 0.0 | 0.00 | 0.02 | 0.02 | 93 | 1014.2 |
| 20260906021514 | 61 | 47 | 0.0 | 0.0 | 0.00 | 0.02 | 0.02 | 93 | 1014.1 |
| 20260906021008 | 61 | 47 | 0.0 | 0.0 | 0.00 | 0.02 | 0.02 | 93 | 1014.1 |
| 20260906020502 | 61 | 47 | 0.0 | 0.0 | 0.00 | 0.02 | 0.02 | 93 | 1014.1 |
| 20260906020004 | 61 | 47 | 0.0 | 0.0 | 0.00 | 0.02 | 0.02 | 93 | 1014.1 |
| 20260906015504 | 61 | 47 | 0.0 | 0.0 | 0.00 | 0.02 | 0.02 | 93 | 1014.1 |
| 20260906015003 | 61 | 47 | 0.0 | 0.0 | 0.00 | 0.02 | 0.02 | 93 | 1014.1 |
| 20260906014504 | 61 | 47 | 0.0 | 0.0 | 0.00 | 0.02 | 0.02 | 93 | 1014.1 |
| 20260906014003 | 61 | 47 | 0.0 | 0.0 | 0.00 | 0.02 | 0.02 | 93 | 1014.1 |
| 20260906013504 | 61 | 47 | 0.0 | 0.0 | 0.00 | 0.02 | 0.02 | 93 | 1014.1 |
| 20260906013005 | 61 | 47 | 0.0 | 0.0 | 0.00 | 0.02 | 0.02 | 92 | 1014.1 |
| 20260906012503 | 61 | 47 | 0.0 | 0.0 | 0.00 | 0.02 | 0.02 | 92 | 1014.2 |
| 20260906012004 | 61 | 47 | 0.0 | 0.0 | 0.00 | 0.02 | 0.02 | 92 | 1014.2 |
| 20260906011514 | 61 | 47 | 0.0 | 0.0 | 0.01 | 0.02 | 0.02 | 92 | 1014.2 |
| 20260906011012 | 61 | 47 | 0.0 | 0.0 | 0.01 | 0.02 | 0.02 | 92 | 1014.2 |
| 20260906010508 | 61 | 47 | 0.0 | 0.0 | 0.01 | 0.02 | 0.02 | 92 | 1014.2 |
| 20260906010018 | 61 | 47 | 0.0 | 0.0 | 0.01 | 0.02 | 0.02 | 92 | 1014.2 |
| 20260906005508 | 61 | 47 | 0.0 | 0.0 | 0.01 | 0.02 | 0.02 | 92 | 1014.2 |
| 20260906005003 | 61 | 47 | 0.0 | 0.0 | 0.01 | 0.02 | 0.02 | 92 | 1014.1 |
| 20260906004503 | 61 | 47 | 0.0 | 0.0 | 0.01 | 0.02 | 0.02 | 92 | 1014.0 |
| 20260906004002 | 61 | 47 | 0.0 | 0.0 | 0.01 | 0.02 | 0.02 | 92 | 1014.0 |
| 20260906003503 | 61 | 47 | 0.0 | 0.0 | 0.01 | 0.02 | 0.02 | 92 | 1014.1 |
| 20260906003005 | 61 | 47 | 0.0 | 0.0 | 0.01 | 0.02 | 0.02 | 92 | 1013.9 |
| 20260906002503 | 61 | 47 | 0.0 | 0.0 | 0.01 | 0.02 | 0.02 | 92 | 1013.7 |
| 20260906002004 | 61 | 47 | 0.0 | 0.0 | 0.01 | 0.02 | 0.02 | 92 | 1013.6 |
| 20260906001512 | 62 | 47 | 0.0 | 0.0 | 0.00 | 0.01 | 0.01 | 92 | 1013.5 |
| 20260906001005 | 62 | 47 | 0.0 | 1.0 | 0.00 | 0.01 | 0.01 | 92 | 1013.6 |
| 20260906000506 | 62 | 47 | 0.0 | 1.0 | 0.00 | 0.01 | 0.01 | 92 | 1013.6 |
| 20260906000019 | 62 | 47 | 0.0 | 0.0 | 0.00 | 0.01 | 0.01 | 92 | 1013.6 |
| 20260905235508 | 62 | 47 | 0.0 | 0.0 | 0.00 | 0.01 | 0.01 | 92 | 1013.6 |
| 20260905235010 | 62 | 47 | 0.0 | 0.0 | 0.00 | 0.01 | 0.01 | 92 | 1013.7 |
| 20260905234527 | 62 | 47 | 0.0 | 0.0 | 0.01 | 0.01 | 0.01 | 92 | 1013.5 |
| 20260905234011 | 62 | 47 | 0.0 | 0.0 | 0.01 | 0.01 | 0.01 | 91 | 1013.5 |
| 20260905233514 | 62 | 47 | 0.0 | 0.0 | 0.01 | 0.01 | 0.01 | 91 | 1013.4 |
| 20260905233006 | 62 | 47 | 0.0 | 0.0 | 0.01 | 0.01 | 0.01 | 91 | 1013.4 |
| 20260905232503 | 62 | 47 | 0.0 | 0.0 | 0.01 | 0.01 | 0.01 | 90 | 1013.2 |
| 20260905232004 | 62 | 47 | 0.0 | 0.0 | 0.01 | 0.01 | 0.01 | 90 | 1013.2 |
| 20260905231521 | 62 | 47 | 0.0 | 0.0 | 0.01 | 0.01 | 0.01 | 89 | 1013.3 |
| 20260905231003 | 63 | 47 | 0.0 | 0.0 | 0.01 | 0.01 | 0.01 | 89 | 1013.3 |
| 20260905230504 | 63 | 41 | 0.0 | 0.0 | 0.01 | 0.01 | 0.01 | 88 | 1013.3 |
| 20260905230019 | 63 | 37 | 0.0 | 0.0 | 0.01 | 0.01 | 0.01 | 87 | 1013.4 |
| 20260905225507 | 64 | 37 | 0.0 | 3.0 | 0.01 | 0.01 | 0.01 | 87 | 1013.3 |
| 20260905225008 | 64 | 36 | 0.0 | 3.0 | 0.01 | 0.01 | 0.01 | 86 | 1013.4 |
| 20260905224518 | 65 | 35 | 1.0 | 3.0 | 0.00 | 0.00 | 0.00 | 85 | 1013.3 |
| 20260905224008 | 65 | 78 | 0.0 | 2.0 | 0.00 | 0.00 | 0.00 | 85 | 1013.2 |
| 20260905223510 | 65 | 77 | 1.0 | 3.0 | 0.00 | 0.00 | 0.00 | 86 | 1013.1 |
| 20260905223023 | 65 | 77 | 0.0 | 3.0 | 0.00 | 0.00 | 0.00 | 86 | 1013.1 |
| 20260905222514 | 65 | 39 | 0.0 | 0.0 | 0.00 | 0.00 | 0.00 | 87 | 1013.1 |
| 20260905222017 | 65 | 39 | 0.0 | 0.0 | 0.00 | 0.00 | 0.00 | 86 | 1013.0 |
| 20260905221506 | 65 | 39 | 0.0 | 0.0 | 0.00 | 0.00 | 0.00 | 86 | 1012.9 |
| 20260905221005 | 65 | 39 | 0.0 | 0.0 | 0.00 | 0.00 | 0.00 | 85 | 1012.9 |
| 20260905220504 | 66 | 39 | 0.0 | 0.0 | 0.00 | 0.00 | 0.00 | 84 | 1012.8 |
| 20260905220011 | 66 | 39 | 0.0 | 0.0 | 0.00 | 0.00 | 0.00 | 84 | 1012.8 |
| 20260905215505 | 66 | 39 | 0.0 | 0.0 | 0.00 | 0.00 | 0.00 | 83 | 1012.7 |
| 20260905215007 | 67 | 39 | 0.0 | 0.0 | 0.00 | 0.00 | 0.00 | 81 | 1012.6 |
| 20260905214516 | 67 | 39 | 0.0 | 0.0 | 0.00 | 0.00 | 0.00 | 79 | 1012.5 |
| 20260905214010 | 67 | 39 | 0.0 | 2.0 | 0.00 | 0.00 | 0.00 | 77 | 1012.6 |
| 20260905213512 | 68 | 6 | 0.0 | 5.0 | 0.00 | 0.00 | 0.00 | 76 | 1012.5 |
| 20260905213022 | 68 | 65 | 1.0 | 6.0 | 0.00 | 0.00 | 0.00 | 76 | 1012.4 |
| 20260905212513 | 68 | 70 | 2.0 | 6.0 | 0.00 | 0.00 | 0.00 | 74 | 1012.3 |
| 20260905212010 | 69 | 264 | 1.0 | 7.0 | 0.00 | 0.00 | 0.00 | 74 | 1012.2 |
| 20260905211527 | 69 | 165 | 2.0 | 7.0 | 0.00 | 0.00 | 0.00 | 74 | 1012.2 |
| 20260905211014 | 69 | 82 | 1.0 | 5.0 | 0.00 | 0.00 | 0.00 | 75 | 1012.1 |
| 20260905210514 | 69 | 68 | 1.0 | 5.0 | 0.00 | 0.00 | 0.00 | 74 | 1012.1 |
| 20260905210010 | 69 | 154 | 0.0 | 6.0 | 0.00 | 0.00 | 0.00 | 75 | 1012.0 |
| 20260905205506 | 69 | 155 | 1.0 | 6.0 | 0.00 | 0.00 | 0.00 | 74 | 1011.9 |
| 20260905205006 | 69 | 71 | 2.0 | 8.0 | 0.00 | 0.00 | 0.00 | 74 | 1011.9 |
| 20260905204511 | 69 | 65 | 0.0 | 8.0 | 0.00 | 0.00 | 0.00 | 74 | 1011.8 |
| 20260905204006 | 69 | 56 | 1.0 | 6.0 | 0.00 | 0.00 | 0.00 | 73 | 1011.9 |
| 20260905203509 | 70 | 143 | 2.0 | 6.0 | 0.00 | 0.00 | 0.00 | 73 | 1011.8 |
| 20260905203020 | 70 | 82 | 1.0 | 6.0 | 0.00 | 0.00 | 0.00 | 74 | 1011.8 |
| 20260905202508 | 70 | 113 | 3.0 | 6.0 | 0.00 | 0.00 | 0.00 | 72 | 1011.8 |
| 20260905202009 | 70 | 72 | 1.0 | 6.0 | 0.00 | 0.00 | 0.00 | 72 | 1011.8 |
| 20260905201525 | 69 | 98 | 2.0 | 7.0 | 0.00 | 0.00 | 0.00 | 72 | 1011.8 |
| 20260905201014 | 69 | 50 | 2.0 | 8.0 | 0.00 | 0.00 | 0.00 | 72 | 1011.7 |
| 20260905200514 | 69 | 77 | 1.0 | 8.0 | 0.00 | 0.00 | 0.00 | 71 | 1011.6 |
| 20260905200030 | 69 | 333 | 2.0 | 6.0 | 0.00 | 0.00 | 0.00 | 74 | 1011.6 |
| 20260905195513 | 69 | 92 | 0.0 | 4.0 | 0.00 | 0.00 | 0.00 | 75 | 1011.6 |
| 20260905195017 | 69 | 71 | 1.0 | 6.0 | 0.00 | 0.00 | 0.00 | 75 | 1011.6 |
| 20260905194508 | 69 | 66 | 2.0 | 9.0 | 0.00 | 0.00 | 0.00 | 75 | 1011.7 |
| 20260905194006 | 69 | 102 | 3.0 | 9.0 | 0.00 | 0.00 | 0.00 | 73 | 1011.7 |
| 20260905193507 | 70 | 16 | 2.0 | 6.0 | 0.00 | 0.00 | 0.00 | 73 | 1011.7 |
| 20260905193014 | 71 | 4 | 2.0 | 6.0 | 0.00 | 0.00 | 0.00 | 73 | 1011.6 |
| 20260905192506 | 72 | 56 | 3.0 | 6.0 | 0.00 | 0.00 | 0.00 | 71 | 1011.6 |
| 20260905192012 | 72 | 1 | 1.0 | 4.0 | 0.00 | 0.00 | 0.00 | 71 | 1011.4 |
| 20260905191521 | 72 | 61 | 1.0 | 6.0 | 0.00 | 0.00 | 0.00 | 70 | 1011.4 |
| 20260905191010 | 72 | 64 | 0.0 | 6.0 | 0.00 | 0.00 | 0.00 | 70 | 1011.4 |
| 20260905190510 | 72 | 60 | 1.0 | 5.0 | 0.00 | 0.00 | 0.00 | 70 | 1011.3 |
| 20260905190027 | 72 | 134 | 3.0 | 5.0 | 0.00 | 0.00 | 0.00 | 68 | 1011.3 |
| 20260905185511 | 73 | 60 | 1.0 | 6.0 | 0.00 | 0.00 | 0.00 | 69 | 1011.3 |
| 20260905185017 | 72 | 77 | 1.0 | 6.0 | 0.00 | 0.00 | 0.00 | 68 | 1011.2 |
| 20260905184527 | 72 | 76 | 1.0 | 4.0 | 0.00 | 0.00 | 0.00 | 67 | 1011.3 |
| 20260905184016 | 72 | 85 | 0.0 | 4.0 | 0.00 | 0.00 | 0.00 | 68 | 1011.2 |
| 20260905183515 | 73 | 32 | 1.0 | 9.0 | 0.00 | 0.00 | 0.00 | 69 | 1011.2 |
| 20260905183032 | 73 | 79 | 1.0 | 9.0 | 0.00 | 0.00 | 0.00 | 68 | 1011.1 |
| 20260905182506 | 72 | 113 | 3.0 | 5.0 | 0.00 | 0.00 | 0.00 | 67 | 1011.2 |
| 20260905182008 | 72 | 51 | 1.0 | 6.0 | 0.00 | 0.00 | 0.00 | 70 | 1011.2 |
| 20260905181521 | 72 | 40 | 2.0 | 6.0 | 0.00 | 0.00 | 0.00 | 70 | 1011.3 |
| 20260905181008 | 72 | 67 | 0.0 | 5.0 | 0.00 | 0.00 | 0.00 | 69 | 1011.3 |
| 20260905180510 | 72 | 82 | 0.0 | 5.0 | 0.00 | 0.00 | 0.00 | 69 | 1011.3 |
| 20260905180003 | 72 | 89 | 1.0 | 6.0 | 0.00 | 0.00 | 0.00 | 69 | 1011.3 |
| 20260905175504 | 72 | 156 | 2.0 | 6.0 | 0.00 | 0.00 | 0.00 | 68 | 1011.3 |
| 20260905175004 | 72 | 58 | 1.0 | 5.0 | 0.00 | 0.00 | 0.00 | 70 | 1011.3 |
| 20260905174517 | 72 | 43 | 2.0 | 5.0 | 0.00 | 0.00 | 0.00 | 70 | 1011.4 |
| 20260905174004 | 71 | 55 | 1.0 | 4.0 | 0.00 | 0.00 | 0.00 | 71 | 1011.3 |
| 20260905173504 | 71 | 359 | 1.0 | 5.0 | 0.00 | 0.00 | 0.00 | 71 | 1011.3 |
| 20260905173008 | 71 | 78 | 1.0 | 5.0 | 0.00 | 0.00 | 0.00 | 71 | 1011.3 |
| 20260905172506 | 71 | 44 | 2.0 | 7.0 | 0.00 | 0.00 | 0.00 | 70 | 1011.3 |
| 20260905172006 | 72 | 42 | 2.0 | 7.0 | 0.00 | 0.00 | 0.00 | 70 | 1011.3 |
| 20260905171524 | 72 | 95 | 1.0 | 7.0 | 0.00 | 0.00 | 0.00 | 69 | 1011.3 |
| 20260905171007 | 72 | 82 | 2.0 | 7.0 | 0.00 | 0.00 | 0.00 | 68 | 1011.3 |
| 20260905170508 | 72 | 110 | 2.0 | 7.0 | 0.00 | 0.00 | 0.00 | 68 | 1011.3 |
| 20260905170022 | 73 | 52 | 3.0 | 7.0 | 0.00 | 0.00 | 0.00 | 68 | 1011.3 |
| 20260905165504 | 73 | 23 | 2.0 | 9.0 | 0.00 | 0.00 | 0.00 | 68 | 1011.3 |
| 20260905165005 | 73 | 55 | 2.0 | 9.0 | 0.00 | 0.00 | 0.00 | 68 | 1011.3 |
| 20260905164506 | 73 | 94 | 1.0 | 8.0 | 0.00 | 0.00 | 0.00 | 68 | 1011.3 |
| 20260905164003 | 73 | 63 | 2.0 | 7.0 | 0.00 | 0.00 | 0.00 | 65 | 1011.3 |
| 20260905163503 | 74 | 118 | 2.0 | 7.0 | 0.00 | 0.00 | 0.00 | 65 | 1011.3 |
| 20260905163006 | 74 | 75 | 2.0 | 7.0 | 0.00 | 0.00 | 0.00 | 65 | 1011.2 |
| 20260905162504 | 74 | 80 | 1.0 | 7.0 | 0.00 | 0.00 | 0.00 | 65 | 1011.3 |
| 20260905162006 | 73 | 77 | 1.0 | 9.0 | 0.00 | 0.00 | 0.00 | 67 | 1011.3 |
| 20260905161512 | 73 | 59 | 2.0 | 9.0 | 0.00 | 0.00 | 0.00 | 65 | 1011.3 |
| 20260905161006 | 74 | 106 | 2.0 | 7.0 | 0.00 | 0.00 | 0.00 | 67 | 1011.4 |
| 20260905160507 | 73 | 46 | 1.0 | 8.0 | 0.00 | 0.00 | 0.00 | 68 | 1011.4 |
| 20260905160017 | 73 | 141 | 1.0 | 8.0 | 0.00 | 0.00 | 0.00 | 67 | 1011.4 |
| 20260905155515 | 73 | 113 | 2.0 | 8.0 | 0.00 | 0.00 | 0.00 | 68 | 1011.4 |
| 20260905155010 | 72 | 73 | 2.0 | 8.0 | 0.00 | 0.00 | 0.00 | 67 | 1011.4 |
| 20260905154523 | 72 | 75 | 2.0 | 8.0 | 0.00 | 0.00 | 0.00 | 69 | 1011.4 |
| 20260905154005 | 72 | 44 | 1.0 | 4.0 | 0.00 | 0.00 | 0.00 | 70 | 1011.4 |
| 20260905153503 | 71 | 63 | 1.0 | 4.0 | 0.00 | 0.00 | 0.00 | 71 | 1011.4 |
| 20260905153004 | 71 | 86 | 0.0 | 5.0 | 0.00 | 0.00 | 0.00 | 70 | 1011.4 |
| 20260905152504 | 71 | 39 | 1.0 | 6.0 | 0.00 | 0.00 | 0.00 | 70 | 1011.4 |
| 20260905152004 | 72 | 71 | 1.0 | 7.0 | 0.00 | 0.00 | 0.00 | 70 | 1011.5 |
| 20260905151511 | 72 | 65 | 2.0 | 7.0 | 0.00 | 0.00 | 0.00 | 71 | 1011.5 |
| 20260905151009 | 71 | 164 | 1.0 | 5.0 | 0.00 | 0.00 | 0.00 | 72 | 1011.5 |